Destin, Florida, United States (32540)
Lat: 30.39N, Lon: 86.5W
Wx Zone: FLZ006
Local Info
Past Weather Observations for Thursday, October 23, 2014

NOTE: This archive is for the closest National Weather Service station to Destin. Information may differ from the station used for current weather conditions.

Click here for Long-term Archive

Time Weather Temperature Dewpoint Humidity Pressure Winds Precip Visibility
23:53
Clear
63°F / 17°C 52°F / 11°C 68% 30.04 in
(1017 mb)
N 3.5 mph
(N 6 kph)
- 10SM
22:53
Clear
63°F / 17°C 52°F / 11°C 68% 30.04 in
(1017 mb)
N 4.6 mph
(N 7 kph)
- 10SM
21:53
Clear
64°F / 18°C 52°F / 11°C 64% 30.06 in
(1018 mb)
NE 4.6 mph
(NE 7 kph)
- 10SM
20:53
Clear
64°F / 18°C 54°F / 12°C 68% 30.06 in
(1018 mb)
NNW 3.5 mph
(NNW 6 kph)
- 10SM
19:53
Clear
63°F / 17°C 54°F / 12°C 73% 30.06 in
(1018 mb)
Calm - 10SM
18:53
Clear
63°F / 17°C 52°F / 11°C 68% 30.04 in
(1017 mb)
Calm - 10SM
17:53
Clear
66°F / 19°C 52°F / 11°C 60% 30.04 in
(1017 mb)
Calm - 10SM
16:53
Clear
72°F / 22°C 50°F / 10°C 47% 30.04 in
(1017 mb)
Variable 3.5 mph
(Variable 6 kph)
- 10SM
15:53
Clear
75°F / 24°C 46°F / 8°C 36% 30.01 in
(1016 mb)
Calm - 10SM
14:53
Clear
75°F / 24°C 46°F / 8°C 36% 30.01 in
(1016 mb)
Calm - 10SM
13:53
Clear
75°F / 24°C 43°F / 6°C 31% 30.04 in
(1017 mb)
Calm - 10SM
12:53
Clear
73°F / 23°C 45°F / 7°C 36% 30.04 in
(1017 mb)
Calm - 10SM
11:53
Clear
73°F / 23°C 46°F / 8°C 38% 30.06 in
(1018 mb)
NNE 5.8 mph
(NNE 9 kph)
- 10SM
10:53
Clear
72°F / 22°C 45°F / 7°C 38% 30.09 in
(1019 mb)
E 8.1 mph
(E 13 kph)
- 10SM
09:53
Clear
68°F / 20°C 50°F / 10°C 53% 30.12 in
(1020 mb)
ENE 8.1 mph
(ENE 13 kph)
- 10SM
08:53
Clear
64°F / 18°C 52°F / 11°C 64% 30.09 in
(1019 mb)
ENE 10.4 mph
(ENE 17 kph)
- 10SM
07:53
Clear
63°F / 17°C 50°F / 10°C 64% 30.09 in
(1019 mb)
ENE 9.2 mph
(ENE 15 kph)
- 10SM
06:53
Clear
57°F / 14°C 48°F / 9°C 72% 30.09 in
(1019 mb)
Variable 5.8 mph
(Variable 9 kph)
- 10SM
05:53
Clear
55°F / 13°C 48°F / 9°C 77% 30.09 in
(1019 mb)
NE 5.8 mph
(NE 9 kph)
- 10SM
04:53
Clear
55°F / 13°C 48°F / 9°C 77% 30.06 in
(1018 mb)
NNE 8.1 mph
(NNE 13 kph)
- 10SM
03:53
Clear
57°F / 14°C 48°F / 9°C 72% 30.04 in
(1017 mb)
NE 8.1 mph
(NE 13 kph)
- 10SM
02:53
Clear
57°F / 14°C 48°F / 9°C 72% 30.06 in
(1018 mb)
NE 4.6 mph
(NE 7 kph)
- 10SM
01:53
Clear
59°F / 15°C 48°F / 9°C 68% 30.04 in
(1017 mb)
NNE 5.8 mph
(NNE 9 kph)
- 10SM
00:53
Clear
61°F / 16°C 48°F / 9°C 63% 30.04 in
(1017 mb)
NE 4.6 mph
(NE 7 kph)
- 10SM
Time Weather Temperature Dewpoint Humidity Pressure Winds Precip Visibility


Weather for websites

WeatherForYou.com, LLC is not responsible for any damages or problems caused by this service. Current weather conditions are obtained from the closest station including government and personal stations which may have varying degrees of accuracy. Weather forecasts are derived from the NOAA NDFD. Like all things, this site belongs to Jesus Christ... He just trusts me to maintain it. If you have any questions or comments email webmaster@weatherforyou.com

Copyright © 2014, WeatherForYou.com LLC. All rights reserved.